Time,TemperatureF,DewpointF,PressureIn,WindDirection,WindDirectionDegrees,WindSpeedMPH,WindSpeedGustMPH,Humidity,HourlyPrecipIn,Conditions,Clouds,dailyrainin,SolarRadiationWatts/m^2,SoftwareType,DateUTC
2013-04-06 00:10:00,36.1,32.0,29.85,ESE,103,0.0,6.0,86,0.00,,,0.00,0,weatherlink.com 1.10,2013-04-06 05:10:00,
2013-04-06 00:25:00,36.3,32.0,29.85,ESE,107,0.0,6.0,85,0.00,,,0.00,0,weatherlink.com 1.10,2013-04-06 05:25:00,
2013-04-06 00:40:00,36.4,32.0,29.84,East,97,0.0,5.0,85,0.00,,,0.00,0,weatherlink.com 1.10,2013-04-06 05:40:00,
2013-04-06 00:55:00,36.6,32.0,29.83,East,98,0.0,3.0,84,0.00,,,0.00,0,weatherlink.com 1.10,2013-04-06 05:55:00,
2013-04-06 01:10:00,37.0,32.0,29.82,ESE,111,0.0,6.0,83,0.00,,,0.00,0,weatherlink.com 1.10,2013-04-06 06:10:00,
2013-04-06 01:25:00,37.5,32.0,29.81,East,88,0.0,4.0,81,0.00,,,0.00,0,weatherlink.com 1.10,2013-04-06 06:25:00,
2013-04-06 01:40:00,38.1,32.0,29.80,ESE,102,0.0,6.0,79,0.00,,,0.00,0,weatherlink.com 1.10,2013-04-06 06:40:00,
2013-04-06 01:55:00,38.9,32.0,29.80,ESE,105,0.0,6.0,76,0.00,,,0.00,0,weatherlink.com 1.10,2013-04-06 06:55:00,
2013-04-06 02:10:00,39.3,32.0,29.79,East,89,0.0,6.0,75,0.00,,,0.00,0,weatherlink.com 1.10,2013-04-06 07:10:00,
2013-04-06 02:25:00,39.6,32.0,29.78,SSE,150,0.0,7.0,74,0.00,,,0.00,0,weatherlink.com 1.10,2013-04-06 07:25:00,
2013-04-06 02:40:00,40.0,32.0,29.77,East,88,0.0,6.0,73,0.00,,,0.00,0,weatherlink.com 1.10,2013-04-06 07:40:00,
2013-04-06 02:55:00,40.2,32.0,29.75,ESE,122,0.0,7.0,73,0.00,,,0.00,0,weatherlink.com 1.10,2013-04-06 07:55:00,
2013-04-06 03:10:00,40.5,32.0,29.74,East,92,0.0,5.0,73,0.00,,,0.00,0,weatherlink.com 1.10,2013-04-06 08:10:00,
2013-04-06 03:25:00,40.7,33.0,29.73,ESE,111,0.0,5.0,73,0.00,,,0.00,0,weatherlink.com 1.10,2013-04-06 08:25:00,
2013-04-06 03:40:00,41.1,33.0,29.73,SSE,159,3.0,7.0,72,0.00,,,0.00,0,weatherlink.com 1.10,2013-04-06 08:40:00,
2013-04-06 03:55:00,41.5,33.0,29.73,South,175,3.0,10.0,72,0.00,,,0.00,0,weatherlink.com 1.10,2013-04-06 08:55:00,
2013-04-06 04:10:00,41.2,34.0,29.72,South,178,0.0,4.0,74,0.00,,,0.00,0,weatherlink.com 1.10,2013-04-06 09:10:00,
2013-04-06 04:55:00,41.3,34.0,29.69,ESE,103,0.0,7.0,74,0.00,,,0.00,0,weatherlink.com 1.10,2013-04-06 09:55:00,
2013-04-06 05:11:00,41.2,33.0,29.69,ESE,103,0.0,12.0,73,0.00,,,0.00,0,weatherlink.com 1.10,2013-04-06 10:11:00,
2013-04-06 05:41:00,40.6,33.0,29.67,ESE,114,0.0,7.0,73,0.00,,,0.00,0,weatherlink.com 1.10,2013-04-06 10:41:00,
2013-04-06 05:56:00,40.5,32.0,29.66,South,171,0.0,6.0,73,0.00,,,0.00,0,weatherlink.com 1.10,2013-04-06 10:56:00,
2013-04-06 06:26:00,40.2,32.0,29.66,SSE,158,0.0,2.0,73,0.00,,,0.00,0,weatherlink.com 1.10,2013-04-06 11:26:00,
2013-04-06 06:41:00,40.0,32.0,29.66,ESE,113,0.0,7.0,73,0.00,,,0.00,0,weatherlink.com 1.10,2013-04-06 11:41:00,
2013-04-06 06:56:00,39.6,32.0,29.65,ESE,117,0.0,9.0,74,0.00,,,0.00,0,weatherlink.com 1.10,2013-04-06 11:56:00,
2013-04-06 07:11:00,39.5,32.0,29.65,East,87,4.0,6.0,74,0.00,,,0.00,9,weatherlink.com 1.10,2013-04-06 12:11:00,
2013-04-06 07:26:00,39.7,32.0,29.65,East,101,0.0,3.0,74,0.00,,,0.00,9,weatherlink.com 1.10,2013-04-06 12:26:00,
2013-04-06 07:56:00,40.0,32.0,29.63,East,83,0.0,0.0,74,0.00,,,0.00,42,weatherlink.com 1.10,2013-04-06 12:56:00,
2013-04-06 08:41:00,41.3,33.0,29.61,ESE,111,0.0,3.0,73,0.00,,,0.00,118,weatherlink.com 1.10,2013-04-06 13:41:00,
2013-04-06 08:56:00,41.9,34.0,29.61,East,93,0.0,6.0,73,0.00,,,0.00,160,weatherlink.com 1.10,2013-04-06 13:56:00,
2013-04-06 09:11:00,42.5,34.0,29.59,SSE,151,2.0,7.0,73,0.00,,,0.00,376,weatherlink.com 1.10,2013-04-06 14:11:00,
2013-04-06 09:26:00,44.6,36.0,29.58,ENE,78,0.0,7.0,72,0.00,,,0.00,431,weatherlink.com 1.10,2013-04-06 14:26:00,
2013-04-06 09:41:00,45.9,36.0,29.57,SSE,149,0.0,9.0,69,0.00,,,0.00,452,weatherlink.com 1.10,2013-04-06 14:41:00,
2013-04-06 09:59:00,47.0,37.0,29.56,South,171,3.0,12.0,69,0.00,,,0.00,482,weatherlink.com 1.10,2013-04-06 14:59:00,
2013-04-06 10:11:00,47.7,38.0,29.55,SSE,167,0.0,11.0,70,0.00,,,0.00,468,weatherlink.com 1.10,2013-04-06 15:11:00,
2013-04-06 10:26:00,47.8,38.0,29.54,SSE,155,1.0,12.0,68,0.00,,,0.00,258,weatherlink.com 1.10,2013-04-06 15:26:00,
2013-04-06 10:42:00,49.6,39.0,29.54,SSE,156,2.0,8.0,68,0.00,,,0.00,438,weatherlink.com 1.10,2013-04-06 15:42:00,
2013-04-06 10:56:00,49.5,41.0,29.54,South,171,2.0,10.0,72,0.00,,,0.00,668,weatherlink.com 1.10,2013-04-06 15:56:00,
2013-04-06 11:12:00,51.9,42.0,29.53,SE,134,0.0,10.0,68,0.00,,,0.00,272,weatherlink.com 1.10,2013-04-06 16:12:00,
2013-04-06 11:27:00,52.0,42.0,29.53,South,183,7.0,8.0,68,0.00,,,0.00,492,weatherlink.com 1.10,2013-04-06 16:27:00,
2013-04-06 11:42:00,52.3,43.0,29.54,South,169,0.0,12.0,70,0.00,,,0.00,290,weatherlink.com 1.10,2013-04-06 16:42:00,
2013-04-06 11:57:00,53.2,43.0,29.53,SSE,148,0.0,5.0,68,0.00,,,0.00,469,weatherlink.com 1.10,2013-04-06 16:57:00,
2013-04-06 12:12:00,54.4,44.0,29.52,South,173,0.0,7.0,68,0.00,,,0.00,329,weatherlink.com 1.10,2013-04-06 17:12:00,
2013-04-06 12:28:00,56.7,46.0,29.52,SSE,159,0.0,7.0,68,0.00,,,0.00,958,weatherlink.com 1.10,2013-04-06 17:28:00,
2013-04-06 12:42:00,57.0,46.0,29.51,South,171,0.0,5.0,68,0.00,,,0.00,250,weatherlink.com 1.10,2013-04-06 17:42:00,
2013-04-06 12:57:00,55.9,46.0,29.51,SSE,165,0.0,0.0,69,0.00,,,0.00,230,weatherlink.com 1.10,2013-04-06 17:57:00,
2013-04-06 13:12:00,55.7,47.0,29.51,SSE,164,0.0,0.0,72,0.00,,,0.00,95,weatherlink.com 1.10,2013-04-06 18:12:00,
2013-04-06 13:27:00,55.3,47.0,29.51,SSE,164,0.0,0.0,74,0.00,,,0.00,118,weatherlink.com 1.10,2013-04-06 18:27:00,
2013-04-06 13:42:00,55.4,46.0,29.50,SSE,164,0.0,0.0,72,0.00,,,0.00,98,weatherlink.com 1.10,2013-04-06 18:42:00,
2013-04-06 13:57:00,54.9,48.0,29.50,NW,304,1.0,3.0,77,0.00,,,0.00,54,weatherlink.com 1.10,2013-04-06 18:57:00,
2013-04-06 14:12:00,52.6,47.0,29.50,NNW,344,0.0,6.0,80,0.00,,,0.00,65,weatherlink.com 1.10,2013-04-06 19:12:00,
2013-04-06 14:27:00,52.2,47.0,29.50,NNW,344,0.0,0.0,81,0.00,,,0.00,54,weatherlink.com 1.10,2013-04-06 19:27:00,
2013-04-06 14:42:00,52.1,46.0,29.49,NNW,344,0.0,0.0,81,0.00,,,0.00,58,weatherlink.com 1.10,2013-04-06 19:42:00,
2013-04-06 14:57:00,51.4,47.0,29.49,NNW,344,0.0,2.0,84,0.01,,,0.01,44,weatherlink.com 1.10,2013-04-06 19:57:00,
2013-04-06 15:12:00,50.9,47.0,29.49,NNW,345,0.0,4.0,86,0.02,,,0.02,42,weatherlink.com 1.10,2013-04-06 20:12:00,
2013-04-06 15:27:00,50.3,47.0,29.49,NNW,333,4.0,9.0,88,0.04,,,0.04,98,weatherlink.com 1.10,2013-04-06 20:27:00,
2013-04-06 15:42:00,49.5,47.0,29.50,NNW,334,6.0,10.0,90,0.06,,,0.06,30,weatherlink.com 1.10,2013-04-06 20:42:00,
2013-04-06 15:57:00,47.9,45.0,29.50,NNW,347,6.0,12.0,90,0.07,,,0.08,86,weatherlink.com 1.10,2013-04-06 20:57:00,
2013-04-06 16:12:00,47.3,45.0,29.52,NNW,342,5.0,10.0,91,0.06,,,0.08,113,weatherlink.com 1.10,2013-04-06 21:12:00,
2013-04-06 16:27:00,47.0,45.0,29.53,NNW,344,7.0,12.0,91,0.03,,,0.08,21,weatherlink.com 1.10,2013-04-06 21:27:00,
2013-04-06 16:42:00,46.4,44.0,29.54,NNW,340,11.0,16.0,91,0.02,,,0.08,46,weatherlink.com 1.10,2013-04-06 21:42:00,
2013-04-06 16:57:00,44.7,42.0,29.55,NNW,337,10.0,18.0,89,0.00,,,0.08,46,weatherlink.com 1.10,2013-04-06 21:57:00,
2013-04-06 17:12:00,43.3,40.0,29.57,NW,326,8.0,18.0,87,0.00,,,0.08,83,weatherlink.com 1.10,2013-04-06 22:12:00,
2013-04-06 17:27:00,42.6,39.0,29.58,NNW,333,13.0,18.0,86,0.00,,,0.08,88,weatherlink.com 1.10,2013-04-06 22:27:00,
2013-04-06 17:42:00,42.3,38.0,29.59,NNW,334,10.0,17.0,86,0.00,,,0.08,149,weatherlink.com 1.10,2013-04-06 22:42:00,
2013-04-06 17:57:00,43.0,39.0,29.61,North,355,12.0,17.0,86,0.00,,,0.08,220,weatherlink.com 1.10,2013-04-06 22:57:00,
2013-04-06 18:12:00,43.0,39.0,29.61,NNW,334,15.0,16.0,86,0.00,,,0.08,162,weatherlink.com 1.10,2013-04-06 23:12:00,
2013-04-06 18:27:00,43.2,39.0,29.62,NNW,328,5.0,15.0,86,0.00,,,0.08,77,weatherlink.com 1.10,2013-04-06 23:27:00,
2013-04-06 18:42:00,42.8,38.0,29.63,NNW,348,8.0,18.0,83,0.00,,,0.08,46,weatherlink.com 1.10,2013-04-06 23:42:00,
2013-04-06 19:12:00,42.3,38.0,29.65,NW,311,4.0,10.0,83,0.00,,,0.08,16,weatherlink.com 1.10,2013-04-07 00:12:00,
2013-04-06 19:27:00,42.0,37.0,29.66,NNW,327,7.0,13.0,82,0.00,,,0.08,11,weatherlink.com 1.10,2013-04-07 00:27:00,
2013-04-06 19:42:00,41.7,37.0,29.67,NW,306,8.0,17.0,82,0.00,,,0.08,5,weatherlink.com 1.10,2013-04-07 00:42:00,
2013-04-06 19:57:00,41.2,36.0,29.67,WNW,296,6.0,12.0,83,0.00,,,0.08,0,weatherlink.com 1.10,2013-04-07 00:57:00,
2013-04-06 20:12:00,40.7,36.0,29.68,NW,304,0.0,13.0,83,0.00,,,0.08,0,weatherlink.com 1.10,2013-04-07 01:12:00,
2013-04-06 20:27:00,40.2,35.0,29.69,NNW,327,5.0,14.0,83,0.00,,,0.08,0,weatherlink.com 1.10,2013-04-07 01:27:00,
2013-04-06 20:57:00,39.5,35.0,29.70,NW,310,0.0,0.0,84,0.00,,,0.08,0,weatherlink.com 1.10,2013-04-07 01:57:00,
2013-04-06 21:12:00,38.8,34.0,29.70,NW,306,0.0,0.0,84,0.00,,,0.08,0,weatherlink.com 1.10,2013-04-07 02:12:00,
2013-04-06 21:27:00,38.4,35.0,29.71,NW,306,0.0,0.0,86,0.00,,,0.08,0,weatherlink.com 1.10,2013-04-07 02:27:00,
2013-04-06 21:42:00,38.2,35.0,29.72,NW,306,0.0,0.0,87,0.00,,,0.08,0,weatherlink.com 1.10,2013-04-07 02:42:00,
2013-04-06 21:57:00,38.2,35.0,29.73,NW,306,0.0,1.0,87,0.00,,,0.08,0,weatherlink.com 1.10,2013-04-07 02:57:00,
2013-04-06 22:12:00,38.6,35.0,29.73,WNW,299,0.0,5.0,87,0.00,,,0.08,0,weatherlink.com 1.10,2013-04-07 03:12:00,
2013-04-06 22:27:00,38.6,35.0,29.73,WNW,292,0.0,8.0,87,0.00,,,0.08,0,weatherlink.com 1.10,2013-04-07 03:27:00,
2013-04-06 22:42:00,38.7,35.0,29.74,NW,307,3.0,10.0,86,0.00,,,0.08,0,weatherlink.com 1.10,2013-04-07 03:42:00,
2013-04-06 22:57:00,38.6,35.0,29.74,WNW,295,4.0,7.0,86,0.00,,,0.08,0,weatherlink.com 1.10,2013-04-07 03:57:00,
2013-04-06 23:12:00,38.5,35.0,29.74,WNW,294,0.0,7.0,86,0.00,,,0.08,0,weatherlink.com 1.10,2013-04-07 04:12:00,
2013-04-06 23:27:00,38.3,35.0,29.74,WNW,300,0.0,5.0,86,0.00,,,0.08,0,weatherlink.com 1.10,2013-04-07 04:27:00,
2013-04-06 23:42:00,38.1,35.0,29.75,WNW,286,8.0,8.0,87,0.00,,,0.08,0,weatherlink.com 1.10,2013-04-07 04:42:00,
2013-04-06 23:57:00,37.8,34.0,29.76,WNW,287,7.0,10.0,87,0.00,,,0.08,0,weatherlink.com 1.10,2013-04-07 04:57:00,